Location: Leedale
(52.5833°N, 114.4833°W)
Time: 16:02:28
(UTC+00:00)

Envisat - Pass Details

Date: 12 August 2024
Orbit: 762 x 764 km, 98.3° (Epoch: 09 September)

Event Time Altitude Azimuth Distance (km) Brightness Sun altitude
Rises 10:31:34 0° 18° (NNE) 3,241 7.6 -13.5°
Reaches altitude 10° 10:33:58 10° 24° (NNE) 2,310 6.7 -13.3°
Maximum altitude 10:38:53 48° 99° (E) 994 3.8 -12.7°
Drops below altitude 10° 10:43:46 10° 174° (S) 2,293 5.1 -12.2°
Enters shadow 10:44:59 - 177° (S) 2,761 5.5 -12.1°
